QPF
0.00 0.01 0.01 0.00 0.00 0.00 0.00 0.00 0.01 0.01 0.00 0.01 0.01 0.01 0.00 0.01 0.02 0.02 0.02 0.02 0.02 0.01 0.01 0.01 0.02 0.03 0.02 0.02 0.01 0.01 0.01 0.01 0.00 0.01 0.01 0.01 0.02 0.02 0.02 0.01 0.02 0.03 0.03 0.03
0.00 0.00 0.00 0.00 0.00 0.00 0.00 0.00 0.00 0.00 0.00 0.01 0.01 0.01 0.00 0.01 0.02 0.02 0.01 0.02 0.02 0.02 0.02 0.01 0.02 0.03 0.02 0.02 0.02 0.01 0.01 0.01 0.01 0.01 0.01 0.02 0.02 0.03 0.02 0.01 0.01 0.02 0.03 0.03
0.00 0.00 0.00 0.00 0.00 0.00 0.00 0.00 0.00 0.00 0.01 0.01 0.01 0.00 0.01 0.00 0.00 0.00 0.01 0.01 0.01 0.02 0.02 0.01 0.02 0.02 0.02 0.01 0.01 0.01 0.01 0.01 0.02 0.02 0.02 0.01 0.02 0.02 0.02 0.01 0.01 0.02 0.03 0.03
0.00 0.00 0.00 0.00 0.00 0.00 0.00 0.00 0.00 0.00 0.01 0.01 0.01 0.01 0.00 0.00 0.00 0.00 0.01 0.01 0.01 0.01 0.01 0.01 0.02 0.02 0.02 0.02 0.02 0.02 0.02 0.02 0.02 0.02 0.02 0.02 0.01 0.01 0.02 0.02 0.01 0.03 0.03 0.03
0.00 0.00 0.00 0.00 0.00 0.00 0.00 0.00 0.00 0.01 0.01 0.01 0.01 0.01 0.00 0.00 0.00 0.00 0.00 0.00 0.00 0.00 0.01 0.01 0.01 0.01 0.01 0.03 0.03 0.03 0.02 0.02 0.02 0.01 0.02 0.02 0.01 0.02 0.03 0.02 0.02 0.04 0.06 0.04
0.00 0.00 0.00 0.00 0.00 0.00 0.00 0.01 0.01 0.01 0.02 0.01 0.01 0.01 0.00 0.00 0.00 0.01 0.00 0.00 0.00 0.00 0.01 0.02 0.02 0.02 0.03 0.04 0.04 0.04 0.04 0.03 0.02 0.02 0.02 0.03 0.02 0.02 0.02 0.01 0.01 0.01 0.04 0.04
0.00 0.00 0.00 0.00 0.00 0.01 0.01 0.01 0.01 0.01 0.01 0.01 0.01 0.01 0.00 0.00 0.00 0.00 0.01 0.01 0.00 0.01 0.02 0.03 0.03 0.03 0.04 0.04 0.04 0.05 0.04 0.04 0.03 0.02 0.03 0.03 0.02 0.02 0.01 0.01 0.01 0.01 0.02 0.03
0.00 0.00 0.00 0.00 0.00 0.00 0.00 0.01 0.01 0.01 0.01 0.01 0.01 0.00 0.00 0.00 0.00 0.00 0.01 0.01 0.01 0.01 0.01 0.02 0.02 0.03 0.03 0.03 0.05 0.04 0.03 0.03 0.03 0.03 0.03 0.04 0.03 0.02 0.01 0.01 0.01 0.02 0.02 0.02
0.00 0.00 0.00 0.00 0.00 0.01 0.01 0.01 0.01 0.01 0.01 0.01 0.00 0.00 0.00 0.00 0.00 0.00 0.00 0.01 0.00 0.01 0.01 0.02 0.02 0.04 0.03 0.03 0.03 0.03 0.02 0.02 0.02 0.03 0.03 0.03 0.02 0.01 0.01 0.01 0.01 0.02 0.01 0.01
0.00 0.00 0.00 0.00 0.01 0.01 0.01 0.02 0.02 0.02 0.01 0.01 0.00 0.00 0.00 0.00 0.00 0.00 0.00 0.00 0.00 0.01 0.01 0.02 0.02 0.03 0.02 0.03 0.02 0.02 0.02 0.04 0.07 0.07 0.04 0.02 0.02 0.02 0.02 0.02 0.01 0.01 0.01 0.01
0.00 0.01 0.01 0.01 0.01 0.01 0.01 0.02 0.02 0.02 0.01 0.01 0.00 0.00 0.00 0.00 0.00 0.00 0.00 0.00 0.01 0.01 0.02 0.03 0.03 0.03 0.03 0.03 0.02 0.02 0.02 0.03 0.06 0.09 0.09 0.03 0.03 0.03 0.03 0.02 0.01 0.02 0.01 0.01
0.01 0.01 0.01 0.00 0.00 0.01 0.01 0.01 0.02 0.02 0.01 0.01 0.00 0.00 0.00 0.00 0.00 0.00 0.00 0.01 0.01 0.01 0.02 0.04 0.04 0.04 0.04 0.03 0.03 0.02 0.03 0.02 0.03 0.04 0.06 0.06 0.04 0.05 0.03 0.02 0.02 0.02 0.01 0.01
0.01 0.01 0.01 0.01 0.01 0.01 0.02 0.02 0.02 0.02 0.01 0.01 0.01 0.00 0.00 0.00 0.00 0.00 0.00 0.00 0.01 0.01 0.02 0.04 0.05 0.05 0.04 0.04 0.03 0.03 0.04 0.04 0.04 0.04 0.05 0.05 0.05 0.04 0.03 0.02 0.02 0.02 0.02 0.01
0.01 0.01 0.01 0.01 0.00 0.01 0.01 0.01 0.02 0.02 0.02 0.01 0.01 0.00 0.00 0.00 0.00 0.01 0.00 0.01 0.01 0.01 0.02 0.03 0.04 0.05 0.04 0.04 0.03 0.03 0.03 0.03 0.02 0.03 0.04 0.04 0.04 0.04 0.03 0.02 0.01 0.03 0.03 0.02
0.01 0.01 0.01 0.01 0.01 0.01 0.01 0.01 0.01 0.01 0.01 0.01 0.01 0.01 0.01 0.00 0.00 0.01 0.01 0.01 0.01 0.01 0.01 0.02 0.03 0.04 0.04 0.04 0.04 0.03 0.03 0.03 0.01 0.02 0.05 0.05 0.04 0.04 0.02 0.02 0.01 0.02 0.02 0.01
0.01 0.02 0.01 0.01 0.00 0.01 0.01 0.02 0.02 0.01 0.01 0.01 0.01 0.01 0.01 0.01 0.00 0.00 0.01 0.01 0.02 0.02 0.02 0.02 0.03 0.03 0.04 0.04 0.05 0.04 0.03 0.02 0.01 0.01 0.01 0.03 0.04 0.04 0.02 0.02 0.02 0.02 0.01 0.01
0.03 0.02 0.01 0.01 0.01 0.01 0.02 0.02 0.02 0.01 0.01 0.01 0.01 0.01 0.01 0.01 0.01 0.01 0.01 0.02 0.05 0.04 0.03 0.03 0.03 0.03 0.04 0.04 0.05 0.04 0.03 0.02 0.01 0.01 0.01 0.01 0.02 0.02 0.03 0.01 0.02 0.02 0.01 0.01
0.03 0.01 0.01 0.01 0.01 0.01 0.02 0.02 0.02 0.01 0.01 0.01 0.01 0.01 0.01 0.01 0.01 0.01 0.01 0.01 0.02 0.05 0.03 0.03 0.03 0.03 0.03 0.03 0.03 0.03 0.02 0.01 0.01 0.01 0.01 0.01 0.01 0.01 0.02 0.02 0.02 0.02 0.01 0.01
0.01 0.00 0.01 0.01 0.00 0.01 0.02 0.02 0.02 0.01 0.02 0.01 0.01 0.00 0.00 0.01 0.01 0.01 0.01 0.01 0.01 0.04 0.05 0.03 0.02 0.02 0.02 0.02 0.02 0.02 0.01 0.01 0.01 0.01 0.01 0.01 0.01 0.01 0.01 0.02 0.03 0.03 0.01 0.01
0.01 0.01 0.01 0.00 0.01 0.01 0.01 0.01 0.01 0.01 0.01 0.01 0.00 0.00 0.00 0.01 0.01 0.01 0.01 0.01 0.01 0.01 0.01 0.01 0.01 0.01 0.01 0.02 0.02 0.01 0.01 0.01 0.01 0.01 0.01 0.02 0.02 0.01 0.01 0.01 0.02 0.03 0.02 0.01
0.00 0.00 0.01 0.01 0.01 0.01 0.01 0.01 0.01 0.01 0.01 0.00 0.00 0.01 0.01 0.01 0.01 0.00 0.01 0.01 0.01 0.01 0.00 0.01 0.01 0.01 0.01 0.01 0.02 0.01 0.01 0.01 0.01 0.01 0.01 0.01 0.02 0.02 0.02 0.02 0.02 0.02 0.03 0.02
0.00 0.01 0.01 0.01 0.02 0.01 0.00 0.01 0.01 0.01 0.01 0.01 0.01 0.01 0.01 0.01 0.00 0.01 0.01 0.01 0.01 0.01 0.01 0.01 0.01 0.01 0.01 0.01 0.01 0.01 0.01 0.01 0.01 0.01 0.01 0.01 0.01 0.02 0.02 0.02 0.02 0.02 0.02 0.03
0.00 0.01 0.01 0.01 0.02 0.01 0.00 0.00 0.01 0.01 0.01 0.01 0.01 0.01 0.01 0.01 0.00 0.00 0.00 0.00 0.00 0.00 0.00 0.00 0.01 0.01 0.01 0.01 0.01 0.01 0.01 0.01 0.01 0.01 0.01 0.01 0.01 0.01 0.02 0.03 0.04 0.04 0.04 0.03
0.01 0.00 0.00 0.01 0.00 0.00 0.00 0.01 0.01 0.01 0.01 0.01 0.00 0.00 0.00 0.00 0.00 0.00 0.00 0.00 0.00 0.00 0.00 0.00 0.00 0.01 0.01 0.00 0.00 0.01 0.01 0.01 0.01 0.01 0.01 0.01 0.01 0.02 0.02 0.02 0.03 0.04 0.06 0.05
0.00 0.01 0.00 0.01 0.00 0.00 0.01 0.01 0.01 0.01 0.01 0.00 0.00 0.00 0.00 0.00 0.00 0.00 0.00 0.00 0.00 0.00 0.00 0.00 0.00 0.01 0.00 0.00 0.00 0.00 0.01 0.01 0.01 0.01 0.01 0.01 0.01 0.02 0.02 0.02 0.01 0.02 0.04 0.06
0.00 0.01 0.01 0.01 0.01 0.01 0.01 0.01 0.02 0.01 0.01 0.01 0.00 0.00 0.00 0.00 0.00 0.00 0.00 0.00 0.00 0.00 0.01 0.00 0.00 0.01 0.01 0.01 0.01 0.01 0.01 0.01 0.01 0.01 0.01 0.01 0.01 0.01 0.01 0.01 0.01 0.02 0.02 0.03
MSLP
1009.71 1010.56 1011.22 1011.68 1011.95 1012.08 1012.11 1012.09 1012.05 1012.01 1011.93 1011.80 1011.59 1011.28 1010.87 1010.37 1009.84 1009.31 1008.83 1008.45 1008.16 1008.00 1007.94 1007.97 1008.09 1008.29 1008.56 1008.92 1009.37 1009.90 1010.51 1011.17 1011.83 1012.46 1013.02 1013.48 1013.84 1014.11 1014.33 1014.53 1014.77 1015.07 1015.46 1015.93
1009.87 1010.58 1011.10 1011.45 1011.65 1011.77 1011.85 1011.93 1012.03 1012.11 1012.14 1012.06 1011.83 1011.44 1010.90 1010.23 1009.52 1008.83 1008.22 1007.74 1007.41 1007.24 1007.20 1007.27 1007.43 1007.65 1007.94 1008.31 1008.76 1009.31 1009.96 1010.67 1011.40 1012.11 1012.75 1013.29 1013.70 1014.00 1014.22 1014.42 1014.63 1014.92 1015.30 1015.80
1009.63 1010.19 1010.58 1010.84 1011.01 1011.17 1011.36 1011.61 1011.89 1012.14 1012.30 1012.29 1012.06 1011.58 1010.90 1010.05 1009.14 1008.26 1007.50 1006.91 1006.53 1006.35 1006.34 1006.46 1006.66 1006.93 1007.25 1007.65 1008.13 1008.70 1009.38 1010.14 1010.93 1011.72 1012.43 1013.04 1013.50 1013.84 1014.08 1014.27 1014.48 1014.75 1015.14 1015.64
1008.97 1009.38 1009.65 1009.85 1010.04 1010.30 1010.66 1011.12 1011.62 1012.08 1012.40 1012.48 1012.25 1011.70 1010.87 1009.83 1008.71 1007.64 1006.71 1006.01 1005.57 1005.38 1005.39 1005.56 1005.83 1006.17 1006.55 1006.99 1007.50 1008.11 1008.82 1009.62 1010.46 1011.31 1012.09 1012.75 1013.27 1013.65 1013.91 1014.11 1014.32 1014.59 1014.97 1015.48
1007.99 1008.24 1008.41 1008.58 1008.82 1009.21 1009.77 1010.47 1011.23 1011.92 1012.41 1012.59 1012.38 1011.76 1010.80 1009.59 1008.27 1007.01 1005.92 1005.11 1004.60 1004.40 1004.44 1004.68 1005.02 1005.43 1005.88 1006.37 1006.93 1007.57 1008.31 1009.14 1010.02 1010.91 1011.73 1012.45 1013.01 1013.43 1013.72 1013.94 1014.16 1014.43 1014.82 1015.34
1006.87 1006.96 1007.04 1007.19 1007.50 1008.03 1008.79 1009.72 1010.72 1011.62 1012.28 1012.56 1012.37 1011.71 1010.64 1009.28 1007.80 1006.38 1005.17 1004.26 1003.71 1003.50 1003.58 1003.88 1004.30 1004.79 1005.32 1005.87 1006.46 1007.13 1007.89 1008.73 1009.62 1010.53 1011.38 1012.13 1012.74 1013.19 1013.52 1013.76 1014.00 1014.29 1014.68 1015.22
1005.81 1005.76 1005.75 1005.88 1006.24 1006.88 1007.80 1008.92 1010.11 1011.18 1011.97 1012.32 1012.16 1011.48 1010.34 1008.88 1007.30 1005.78 1004.48 1003.52 1002.96 1002.76 1002.90 1003.26 1003.76 1004.32 1004.91 1005.51 1006.14 1006.81 1007.56 1008.40 1009.28 1010.18 1011.05 1011.81 1012.45 1012.93 1013.29 1013.57 1013.83 1014.14 1014.55 1015.09
1005.04 1004.85 1004.74 1004.83 1005.20 1005.90 1006.91 1008.13 1009.42 1010.58 1011.43 1011.83 1011.69 1011.00 1009.83 1008.35 1006.73 1005.19 1003.89 1002.94 1002.40 1002.25 1002.45 1002.88 1003.44 1004.07 1004.70 1005.32 1005.96 1006.62 1007.35 1008.14 1009.00 1009.87 1010.72 1011.49 1012.14 1012.65 1013.04 1013.35 1013.64 1013.97 1014.40 1014.95
1004.70 1004.37 1004.17 1004.19 1004.52 1005.20 1006.19 1007.40 1008.68 1009.82 1010.67 1011.06 1010.91 1010.23 1009.10 1007.65 1006.10 1004.62 1003.39 1002.52 1002.06 1001.99 1002.25 1002.74 1003.36 1004.02 1004.67 1005.29 1005.91 1006.54 1007.21 1007.96 1008.76 1009.59 1010.40 1011.16 1011.81 1012.35 1012.77 1013.11 1013.43 1013.78 1014.22 1014.78
1004.84 1004.40 1004.09 1004.01 1004.24 1004.81 1005.68 1006.76 1007.91 1008.94 1009.69 1010.02 1009.86 1009.21 1008.15 1006.81 1005.39 1004.07 1002.99 1002.26 1001.92 1001.95 1002.28 1002.82 1003.47 1004.13 1004.77 1005.37 1005.94 1006.51 1007.13 1007.80 1008.54 1009.31 1010.09 1010.83 1011.48 1012.03 1012.47 1012.85 1013.20 1013.57 1014.02 1014.57
1005.41 1004.88 1004.47 1004.27 1004.35 1004.73 1005.39 1006.25 1007.16 1007.99 1008.56 1008.78 1008.59 1007.98 1007.03 1005.87 1004.65 1003.55 1002.69 1002.14 1001.95 1002.09 1002.48 1003.05 1003.69 1004.33 1004.92 1005.47 1005.98 1006.49 1007.04 1007.65 1008.33 1009.05 1009.79 1010.50 1011.15 1011.71 1012.18 1012.58 1012.95 1013.34 1013.78 1014.32
1006.26 1005.68 1005.18 1004.85 1004.76 1004.91 1005.30 1005.86 1006.47 1007.02 1007.38 1007.46 1007.22 1006.66 1005.85 1004.89 1003.93 1003.08 1002.46 1002.12 1002.08 1002.31 1002.75 1003.31 1003.91 1004.50 1005.03 1005.51 1005.95 1006.40 1006.90 1007.46 1008.09 1008.79 1009.50 1010.20 1010.85 1011.42 1011.91 1012.33 1012.71 1013.10 1013.54 1014.06
1007.20 1006.60 1006.04 1005.60 1005.33 1005.25 1005.35 1005.59 1005.88 1006.13 1006.26 1006.19 1005.89 1005.39 1004.72 1003.98 1003.27 1002.69 1002.30 1002.15 1002.24 1002.54 1002.99 1003.51 1004.04 1004.54 1005.00 1005.40 1005.79 1006.20 1006.67 1007.21 1007.83 1008.51 1009.23 1009.93 1010.59 1011.17 1011.67 1012.10 1012.50 1012.89 1013.31 1013.80
1008.06 1007.47 1006.89 1006.38 1005.96 1005.67 1005.50 1005.44 1005.42 1005.39 1005.29 1005.08 1004.74 1004.29 1003.77 1003.23 1002.76 1002.41 1002.22 1002.22 1002.39 1002.71 1003.11 1003.56 1004.00 1004.40 1004.76 1005.11 1005.46 1005.85 1006.32 1006.88 1007.52 1008.23 1008.96 1009.68 1010.36 1010.96 1011.48 1011.92 1012.31 1012.69 1013.10 1013.55
1008.73 1008.18 1007.61 1007.06 1006.54 1006.09 1005.72 1005.40 1005.13 1004.86 1004.58 1004.25 1003.88 1003.48 1003.08 1002.72 1002.43 1002.26 1002.21 1002.30 1002.50 1002.77 1003.10 1003.43 1003.74 1004.04 1004.32 1004.61 1004.94 1005.35 1005.86 1006.47 1007.16 1007.92 1008.69 1009.45 1010.16 1010.78 1011.31 1011.76 1012.16 1012.53 1012.91 1013.33
1009.16 1008.67 1008.14 1007.59 1007.03 1006.48 1005.97 1005.48 1005.02 1004.59 1004.17 1003.77 1003.38 1003.02 1002.72 1002.48 1002.32 1002.26 1002.28 1002.39 1002.54 1002.73 1002.93 1003.12 1003.30 1003.48 1003.68 1003.94 1004.28 1004.72 1005.29 1005.97 1006.75 1007.57 1008.41 1009.21 1009.95 1010.60 1011.15 1011.61 1012.01 1012.37 1012.74 1013.13
1009.39 1008.96 1008.49 1007.96 1007.41 1006.84 1006.25 1005.68 1005.12 1004.58 1004.09 1003.64 1003.25 1002.93 1002.68 1002.52 1002.43 1002.41 1002.43 1002.49 1002.55 1002.61 1002.65 1002.68 1002.71 1002.78 1002.91 1003.14 1003.50 1004.00 1004.65 1005.42 1006.28 1007.18 1008.08 1008.94 1009.71 1010.38 1010.95 1011.42 1011.83 1012.20 1012.57 1012.94
1009.48 1009.11 1008.69 1008.23 1007.72 1007.16 1006.58 1005.98 1005.39 1004.82 1004.30 1003.84 1003.46 1003.16 1002.95 1002.81 1002.73 1002.69 1002.65 1002.61 1002.54 1002.43 1002.30 1002.16 1002.06 1002.02 1002.09 1002.31 1002.69 1003.24 1003.97 1004.82 1005.76 1006.74 1007.69 1008.59 1009.40 1010.10 1010.69 1011.18 1011.61 1011.99 1012.36 1012.74
1009.53 1009.20 1008.83 1008.43 1007.98 1007.47 1006.93 1006.36 1005.79 1005.24 1004.73 1004.28 1003.91 1003.63 1003.42 1003.27 1003.15 1003.04 1002.91 1002.74 1002.52 1002.24 1001.94 1001.65 1001.42 1001.29 1001.30 1001.50 1001.90 1002.50 1003.28 1004.20 1005.20 1006.23 1007.24 1008.17 1009.01 1009.72 1010.34 1010.85 1011.30 1011.71 1012.11 1012.50
1009.58 1009.27 1008.95 1008.60 1008.21 1007.78 1007.30 1006.79 1006.26 1005.74 1005.26 1004.84 1004.48 1004.19 1003.97 1003.78 1003.61 1003.41 1003.17 1002.86 1002.49 1002.06 1001.62 1001.19 1000.85 1000.63 1000.60 1000.78 1001.19 1001.81 1002.63 1003.59 1004.63 1005.69 1006.72 1007.67 1008.53 1009.27 1009.90 1010.45 1010.93 1011.37 1011.80 1012.22
1009.66 1009.35 1009.06 1008.75 1008.41 1008.04 1007.63 1007.18 1006.71 1006.24 1005.80 1005.39 1005.04 1004.74 1004.48 1004.24 1004.00 1003.71 1003.37 1002.94 1002.44 1001.89 1001.33 1000.80 1000.37 1000.10 1000.02 1000.18 1000.58 1001.21 1002.04 1003.01 1004.06 1005.13 1006.16 1007.13 1007.99 1008.75 1009.41 1009.98 1010.50 1010.99 1011.45 1011.91
1009.72 1009.41 1009.13 1008.85 1008.55 1008.23 1007.87 1007.48 1007.06 1006.63 1006.21 1005.82 1005.46 1005.14 1004.84 1004.55 1004.24 1003.88 1003.45 1002.94 1002.35 1001.72 1001.08 1000.49 1000.01 999.69 999.58 999.71 1000.10 1000.71 1001.53 1002.48 1003.52 1004.58 1005.61 1006.57 1007.45 1008.22 1008.90 1009.50 1010.05 1010.57 1011.07 1011.56
1009.70 1009.39 1009.11 1008.84 1008.58 1008.29 1007.97 1007.62 1007.24 1006.84 1006.44 1006.04 1005.67 1005.32 1004.99 1004.65 1004.29 1003.87 1003.38 1002.82 1002.20 1001.52 1000.85 1000.23 999.73 999.38 999.26 999.37 999.72 1000.31 1001.10 1002.03 1003.04 1004.08 1005.10 1006.05 1006.93 1007.71 1008.41 1009.04 1009.62 1010.16 1010.69 1011.21
1009.55 1009.23 1008.95 1008.70 1008.45 1008.19 1007.90 1007.58 1007.22 1006.83 1006.43 1006.03 1005.64 1005.26 1004.89 1004.52 1004.12 1003.68 1003.17 1002.60 1001.97 1001.30 1000.63 1000.02 999.51 999.17 999.03 999.12 999.45 1000.00 1000.75 1001.65 1002.63 1003.64 1004.65 1005.60 1006.47 1007.27 1007.98 1008.63 1009.22 1009.78 1010.33 1010.85
1009.21 1008.89 1008.62 1008.38 1008.16 1007.92 1007.66 1007.35 1007.01 1006.62 1006.22 1005.80 1005.39 1004.99 1004.59 1004.19 1003.78 1003.34 1002.84 1002.28 1001.68 1001.05 1000.41 999.83 999.35 999.02 998.87 998.95 999.25 999.76 1000.48 1001.33 1002.28 1003.28 1004.26 1005.21 1006.09 1006.89 1007.61 1008.27 1008.88 1009.44 1009.99 1010.51
1008.68 1008.37 1008.12 1007.91 1007.71 1007.51 1007.27 1006.98 1006.65 1006.27 1005.86 1005.43 1005.00 1004.57 1004.16 1003.76 1003.35 1002.92 1002.45 1001.94 1001.38 1000.80 1000.22 999.68 999.23 998.91 998.76 998.82 999.09 999.57 1000.24 1001.06 1001.98 1002.95 1003.93 1004.87 1005.75 1006.56 1007.30 1007.96 1008.56 1009.13 1009.66 1010.18
Thickness
5731 5717 5708 5713 5717 5716 5711 5705 5702 5708 5719 5714 5708 5708 5713 5718 5716 5713 5712 5712 5712 5714 5718 5718 5717 5715 5714 5712 5710 5708 5706 5704 5702 5699 5696 5693 5691 5690 5690 5689 5689 5688 5687 5686
5713 5709 5720 5723 5721 5715 5709 5701 5700 5706 5716 5711 5703 5703 5710 5713 5713 5714 5712 5711 5711 5712 5712 5713 5713 5711 5710 5709 5707 5705 5703 5701 5699 5697 5694 5691 5688 5686 5685 5684 5684 5684 5683 5682
5708 5716 5726 5720 5713 5708 5705 5701 5700 5700 5706 5705 5701 5695 5701 5709 5713 5714 5713 5712 5712 5711 5710 5709 5709 5708 5707 5705 5704 5703 5701 5699 5697 5694 5691 5687 5684 5682 5680 5679 5679 5679 5679 5678
5710 5719 5720 5714 5709 5707 5697 5710 5707 5702 5691 5683 5691 5674 5693 5700 5704 5708 5709 5709 5709 5710 5710 5708 5707 5705 5704 5704 5702 5700 5698 5696 5694 5691 5688 5684 5679 5676 5675 5674 5674 5674 5674 5673
5707 5715 5713 5708 5711 5711 5706 5712 5705 5698 5688 5678 5681 5672 5682 5695 5696 5703 5707 5708 5709 5709 5709 5707 5706 5705 5704 5702 5700 5698 5695 5692 5690 5688 5685 5681 5677 5673 5671 5670 5669 5669 5669 5668
5710 5719 5717 5714 5718 5715 5710 5700 5690 5680 5674 5664 5674 5668 5674 5685 5695 5703 5707 5708 5707 5707 5707 5705 5705 5703 5701 5699 5696 5694 5691 5688 5686 5684 5681 5678 5673 5670 5667 5665 5664 5663 5663 5663
5697 5707 5715 5718 5708 5706 5700 5680 5661 5658 5650 5655 5671 5668 5675 5695 5701 5704 5706 5706 5706 5705 5703 5701 5700 5698 5696 5694 5693 5690 5688 5684 5682 5680 5677 5674 5670 5667 5664 5662 5660 5658 5657 5657
5679 5681 5703 5709 5705 5696 5691 5682 5659 5650 5646 5652 5665 5663 5680 5697 5702 5705 5705 5704 5703 5701 5700 5699 5698 5696 5693 5692 5689 5687 5684 5681 5678 5676 5673 5670 5667 5664 5661 5659 5657 5655 5654 5653
5674 5678 5702 5708 5709 5701 5686 5677 5678 5659 5653 5647 5654 5666 5683 5695 5697 5698 5698 5698 5697 5697 5697 5696 5695 5692 5690 5688 5686 5684 5681 5678 5675 5672 5669 5666 5664 5661 5658 5657 5655 5653 5652 5651
5681 5675 5690 5699 5702 5697 5692 5679 5664 5654 5643 5639 5650 5656 5665 5681 5687 5690 5691 5691 5692 5692 5691 5691 5690 5688 5686 5685 5683 5680 5678 5675 5672 5669 5666 5663 5660 5658 5656 5654 5651 5650 5648 5647
5680 5670 5675 5684 5683 5680 5679 5672 5661 5650 5648 5638 5637 5652 5681 5684 5687 5686 5687 5688 5689 5688 5686 5686 5685 5684 5683 5680 5678 5675 5673 5670 5667 5665 5662 5659 5657 5654 5652 5650 5648 5646 5645 5643
5670 5660 5657 5669 5682 5686 5682 5674 5662 5651 5646 5641 5637 5652 5687 5685 5686 5685 5684 5685 5685 5684 5683 5682 5681 5679 5677 5674 5672 5671 5668 5666 5664 5661 5658 5655 5653 5651 5648 5646 5644 5643 5641 5640
5665 5654 5644 5651 5660 5671 5671 5668 5663 5655 5643 5634 5634 5653 5680 5680 5680 5680 5679 5679 5679 5678 5677 5676 5674 5672 5671 5669 5667 5665 5664 5662 5660 5657 5654 5651 5648 5646 5644 5642 5641 5639 5637 5635
5664 5648 5643 5641 5648 5656 5660 5662 5658 5652 5638 5636 5642 5656 5668 5671 5672 5673 5674 5673 5673 5672 5671 5669 5668 5668 5666 5665 5662 5660 5659 5657 5655 5652 5649 5646 5644 5642 5640 5639 5637 5635 5633 5631
5656 5644 5646 5647 5652 5654 5655 5657 5655 5652 5648 5643 5651 5653 5662 5666 5668 5669 5669 5668 5668 5667 5666 5665 5664 5663 5662 5660 5658 5656 5654 5652 5650 5647 5644 5642 5640 5638 5636 5634 5632 5630 5628 5627
5644 5639 5640 5641 5647 5646 5647 5651 5652 5651 5650 5648 5650 5652 5661 5662 5661 5661 5661 5662 5661 5661 5661 5661 5660 5659 5658 5656 5653 5651 5649 5647 5645 5642 5640 5638 5635 5633 5631 5629 5627 5625 5623 5621
5632 5630 5626 5624 5635 5640 5634 5645 5648 5648 5649 5649 5646 5652 5656 5655 5656 5656 5657 5657 5657 5657 5657 5656 5655 5655 5654 5652 5650 5647 5645 5643 5640 5637 5635 5632 5630 5628 5627 5625 5622 5620 5618 5616
5625 5620 5612 5613 5623 5618 5635 5649 5650 5647 5647 5647 5649 5652 5651 5653 5654 5654 5654 5653 5652 5652 5652 5652 5651 5651 5649 5648 5646 5643 5640 5637 5635 5632 5630 5627 5625 5623 5621 5619 5617 5615 5613 5611
5623 5617 5605 5601 5605 5614 5630 5641 5641 5639 5640 5646 5644 5646 5645 5646 5646 5646 5650 5650 5648 5648 5648 5648 5647 5647 5645 5643 5641 5638 5635 5632 5630 5627 5625 5624 5622 5619 5616 5614 5611 5609 5607 5605
5613 5611 5601 5595 5600 5604 5623 5638 5642 5637 5630 5642 5640 5639 5638 5637 5630 5636 5645 5645 5644 5644 5644 5643 5642 5641 5639 5638 5636 5633 5630 5627 5625 5623 5621 5619 5617 5615 5612 5609 5607 5604 5602 5600
5599 5594 5592 5591 5593 5603 5620 5629 5632 5617 5620 5635 5634 5633 5631 5629 5631 5636 5638 5638 5638 5638 5638 5638 5637 5635 5634 5632 5630 5627 5624 5622 5621 5619 5616 5613 5611 5609 5607 5604 5601 5598 5596 5594
5593 5588 5586 5584 5585 5596 5619 5618 5614 5615 5623 5626 5626 5626 5626 5626 5628 5629 5630 5631 5632 5631 5632 5631 5629 5628 5627 5626 5623 5620 5619 5618 5615 5612 5609 5607 5605 5604 5602 5598 5595 5592 5590 5588
5588 5592 5590 5591 5596 5606 5610 5611 5615 5615 5616 5618 5618 5620 5621 5620 5620 5622 5622 5623 5624 5625 5624 5623 5621 5620 5619 5618 5617 5614 5614 5612 5609 5605 5603 5600 5599 5597 5595 5591 5588 5585 5583 5581
5585 5588 5585 5585 5593 5600 5603 5606 5609 5610 5611 5613 5614 5614 5614 5612 5613 5614 5614 5615 5616 5616 5615 5614 5612 5611 5611 5611 5610 5609 5608 5606 5603 5599 5596 5593 5591 5589 5588 5586 5583 5580 5578 5576
5580 5579 5577 5579 5588 5593 5599 5599 5601 5603 5604 5605 5606 5607 5607 5607 5607 5607 5607 5608 5608 5608 5607 5606 5604 5603 5603 5603 5602 5602 5601 5599 5595 5592 5590 5587 5585 5582 5580 5579 5577 5575 5574 5572
5571 5573 5572 5577 5585 5584 5589 5594 5595 5595 5596 5597 5598 5599 5600 5601 5601 5601 5600 5600 5600 5599 5599 5598 5597 5597 5596 5596 5595 5595 5593 5591 5588 5585 5582 5580 5578 5576 5574 5571 5570 5569 5568 5567